| time (UTC) | temp F | wind direction | speed MPH | gust MPH | rain 1hr in | rain 24hr in | rain mn in | humidity % | barometer mb |
| 20260505003024 | 63 | 126 | 2.0 | 4.0 | 0.00 | 0.00 | 0.00 | 43 | 1008.8 |
| 20260505002026 | 64 | 185 | 2.0 | 6.0 | 0.00 | 0.00 | 0.00 | 43 | 1008.6 |
| 20260505001025 | 64 | 177 | 1.0 | 5.0 | 0.00 | 0.00 | 0.00 | 42 | 1008.4 |
| 20260505000020 | 65 | 174 | 3.0 | 7.0 | 0.00 | 0.00 | 0.00 | 41 | 1008.1 |
| 20260504235025 | 65 | 73 | 1.0 | 3.0 | 0.00 | 0.00 | 0.00 | 40 | 1007.8 |
| 20260504234020 | 66 | 168 | 2.0 | 7.0 | 0.00 | 0.00 | 0.00 | 39 | 1007.7 |
| 20260504233024 | 67 | 171 | 3.0 | 5.0 | 0.00 | 0.00 | 0.00 | 38 | 1007.5 |
| 20260504232019 | 67 | 139 | 2.0 | 3.0 | 0.00 | 0.00 | 0.00 | 37 | 1007.3 |
| 20260504231024 | 68 | 118 | 3.0 | 11.0 | 0.00 | 0.00 | 0.00 | 35 | 1007.2 |
| 20260504230039 | 69 | 194 | 3.0 | 6.0 | 0.00 | 0.00 | 0.00 | 34 | 1007.0 |
| 20260504225027 | 70 | 155 | 3.0 | 7.0 | 0.00 | 0.00 | 0.00 | 32 | 1006.7 |
| 20260504224025 | 71 | 192 | 3.0 | 9.0 | 0.00 | 0.00 | 0.00 | 29 | 1006.6 |
| 20260504223020 | 71 | 10 | 2.0 | 4.0 | 0.00 | 0.00 | 0.00 | 29 | 1006.5 |
| 20260504222024 | 71 | 203 | 1.0 | 3.0 | 0.00 | 0.00 | 0.00 | 29 | 1006.5 |
| 20260504221021 | 71 | 15 | 2.0 | 5.0 | 0.00 | 0.00 | 0.00 | 29 | 1006.6 |
| 20260504220020 | 71 | 340 | 1.0 | 3.0 | 0.00 | 0.00 | 0.00 | 29 | 1006.6 |
| 20260504215020 | 71 | 342 | 2.0 | 5.0 | 0.00 | 0.00 | 0.00 | 29 | 1006.7 |
| 20260504214028 | 72 | 234 | 3.0 | 4.0 | 0.00 | 0.00 | 0.00 | 28 | 1006.6 |
| 20260504213040 | 72 | 269 | 3.0 | 7.0 | 0.00 | 0.00 | 0.00 | 27 | 1006.6 |
| 20260504212024 | 72 | 331 | 4.0 | 13.0 | 0.00 | 0.00 | 0.00 | 27 | 1006.6 |
| 20260504211020 | 72 | 309 | 2.0 | 9.0 | 0.00 | 0.00 | 0.00 | 28 | 1006.5 |
| 20260504210027 | 72 | 314 | 2.0 | 6.0 | 0.00 | 0.00 | 0.00 | 28 | 1006.6 |
| 20260504205019 | 71 | 66 | 2.0 | 4.0 | 0.00 | 0.00 | 0.00 | 28 | 1006.6 |
| 20260504204024 | 72 | 356 | 2.0 | 4.0 | 0.00 | 0.00 | 0.00 | 29 | 1006.6 |
| 20260504203025 | 72 | 8 | 2.0 | 7.0 | 0.00 | 0.00 | 0.00 | 28 | 1006.6 |
| 20260504202024 | 72 | 284 | 3.0 | 7.0 | 0.00 | 0.00 | 0.00 | 27 | 1006.6 |
| 20260504201024 | 72 | 334 | 4.0 | 11.0 | 0.00 | 0.00 | 0.00 | 27 | 1006.6 |
| 20260504200028 | 72 | 357 | 5.0 | 9.0 | 0.00 | 0.00 | 0.00 | 26 | 1006.7 |
| 20260504195024 | 72 | 346 | 5.0 | 10.0 | 0.00 | 0.00 | 0.00 | 25 | 1006.7 |
| 20260504194021 | 73 | 221 | 3.0 | 7.0 | 0.00 | 0.00 | 0.00 | 25 | 1006.7 |
| 20260504193025 | 73 | 208 | 3.0 | 6.0 | 0.00 | 0.00 | 0.00 | 25 | 1006.8 |
| 20260504192020 | 73 | 315 | 3.0 | 7.0 | 0.00 | 0.00 | 0.00 | 25 | 1006.8 |
| 20260504191044 | 73 | 249 | 4.0 | 9.0 | 0.00 | 0.00 | 0.00 | 25 | 1006.9 |
| 20260504190019 | 74 | 183 | 5.0 | 9.0 | 0.00 | 0.00 | 0.00 | 24 | 1007.0 |
| 20260504185024 | 72 | 326 | 6.0 | 14.0 | 0.00 | 0.00 | 0.00 | 25 | 1007.2 |
| 20260504184045 | 74 | 339 | 4.0 | 8.0 | 0.00 | 0.00 | 0.00 | 24 | 1007.2 |
| 20260504183028 | 75 | 162 | 3.0 | 7.0 | 0.00 | 0.00 | 0.00 | 23 | 1007.3 |
| 20260504182100 | 74 | 226 | 3.0 | 7.0 | 0.00 | 0.00 | 0.00 | 25 | 1007.3 |
| 20260504181021 | 73 | 314 | 4.0 | 14.0 | 0.00 | 0.00 | 0.00 | 25 | 1007.2 |
| 20260504180020 | 72 | 282 | 5.0 | 13.0 | 0.00 | 0.00 | 0.00 | 25 | 1007.5 |
| 20260504175020 | 72 | 311 | 5.0 | 9.0 | 0.00 | 0.00 | 0.00 | 25 | 1007.5 |
| 20260504174029 | 75 | 261 | 8.0 | 17.0 | 0.00 | 0.00 | 0.00 | 23 | 1007.6 |
| 20260504173021 | 74 | 355 | 3.0 | 9.0 | 0.00 | 0.00 | 0.00 | 25 | 1007.8 |
| 20260504172025 | 72 | 207 | 4.0 | 7.0 | 0.00 | 0.00 | 0.00 | 25 | 1007.8 |
| 20260504171021 | 70 | 321 | 7.0 | 13.0 | 0.00 | 0.00 | 0.00 | 26 | 1007.9 |
| 20260504151025 | 69 | 208 | 5.0 | 10.0 | 0.00 | 0.00 | 0.00 | 29 | 1009.0 |
| 20260504141022 | 66 | 30 | 2.0 | 4.0 | 0.00 | 0.00 | 0.00 | 33 | 1009.4 |
| 20260504100105 | 44 | 352 | 0.0 | 0.0 | 0.00 | 0.00 | 0.00 | 64 | 1010.7 |
| 20260504081020 | 43 | 0.0 | 0.0 | 0.00 | 0.00 | 0.00 | 74 | 1010.4 | |
| 20260504050019 | 37 | 0.0 | 0.0 | 0.00 | 0.00 | 0.00 | 78 | 1010.6 | |
| 20260504045020 | 37 | 0.0 | 0.0 | 0.00 | 0.00 | 0.00 | 79 | 1010.6 | |
| 20260504044024 | 36 | 0.0 | 0.0 | 0.00 | 0.00 | 0.00 | 78 | 1010.7 | |
| 20260504043021 | 36 | 0.0 | 0.0 | 0.00 | 0.00 | 0.00 | 78 | 1010.6 | |
| 20260504042025 | 36 | 0.0 | 0.0 | 0.00 | 0.00 | 0.00 | 78 | 1010.6 | |
| 20260504041021 | 36 | 336 | 0.0 | 0.0 | 0.00 | 0.00 | 0.00 | 78 | 1010.5 |
| 20260504040024 | 37 | 221 | 0.0 | 1.0 | 0.00 | 0.00 | 0.00 | 78 | 1010.4 |
| 20260504035019 | 37 | 0.0 | 0.0 | 0.00 | 0.00 | 0.00 | 77 | 1010.4 | |
| 20260504034040 | 37 | 0.0 | 0.0 | 0.00 | 0.00 | 0.00 | 74 | 1010.3 | |
| 20260504033020 | 37 | 0.0 | 0.0 | 0.00 | 0.00 | 0.00 | 72 | 1010.2 | |
| 20260504032028 | 38 | 0.0 | 0.0 | 0.00 | 0.00 | 0.00 | 72 | 1010.2 | |
| 20260504031020 | 38 | 0.0 | 0.0 | 0.00 | 0.00 | 0.00 | 72 | 1010.2 | |
| 20260504030025 | 38 | 0.0 | 0.0 | 0.00 | 0.00 | 0.00 | 71 | 1010.2 | |
| 20260504025021 | 39 | 0.0 | 0.0 | 0.00 | 0.00 | 0.00 | 70 | 1010.0 | |
| 20260504024024 | 39 | 0.0 | 0.0 | 0.00 | 0.00 | 0.00 | 70 | 1010.0 | |
| 20260504023031 | 39 | 0.0 | 0.0 | 0.00 | 0.00 | 0.00 | 69 | 1010.0 | |
| 20260504022026 | 40 | 0.0 | 0.0 | 0.00 | 0.00 | 0.00 | 68 | 1010.0 | |
| 20260504021020 | 40 | 0.0 | 0.0 | 0.00 | 0.00 | 0.00 | 66 | 1009.9 | |
| 20260504020026 | 41 | 0.0 | 0.0 | 0.00 | 0.00 | 0.00 | 64 | 1009.9 | |
| 20260504015024 | 41 | 0.0 | 0.0 | 0.00 | 0.00 | 0.00 | 63 | 1009.8 | |
| 20260504014100 | 42 | 0.0 | 0.0 | 0.00 | 0.00 | 0.00 | 60 | 1009.7 | |
| 20260504013025 | 42 | 0.0 | 0.0 | 0.00 | 0.00 | 0.00 | 60 | 1009.7 | |
| 20260504012024 | 43 | 0.0 | 0.0 | 0.00 | 0.00 | 0.00 | 58 | 1009.6 | |
| 20260504011025 | 43 | 0.0 | 0.0 | 0.00 | 0.00 | 0.00 | 57 | 1009.5 | |
| 20260504010025 | 44 | 0.0 | 0.0 | 0.00 | 0.00 | 0.00 | 56 | 1009.4 | |
| 20260504005024 | 45 | 0.0 | 0.0 | 0.00 | 0.00 | 0.00 | 54 | 1009.2 | |
| 20260504004019 | 46 | 0.0 | 0.0 | 0.00 | 0.00 | 0.00 | 52 | 1009.1 |